GW3382 Weather Reports


Display with metric or nautical units.
time (UTC)temp
F
wind
direction
speed
MPH
gust
MPH
rain 1hr
in
rain 24hr
in
rain mn
in
humidity
%
barometer
mb
20240620025413 78 106 11.0 13.0 0.00 0.00 0.00 77 1029.7
20240620024911 78 109 10.0 14.0 0.00 0.00 0.00 76 1029.4
20240620024409 78 113 10.0 13.0 0.00 0.00 0.00 78 1029.7
20240620023909 78 106 10.0 14.0 0.00 0.00 0.00 78 1029.7
20240620023407 78 105 10.0 12.0 0.00 0.00 0.00 77 1029.4
20240620022904 78 102 11.0 14.0 0.00 0.00 0.00 79 1029.4
20240620022404 78 105 10.0 13.0 0.00 0.00 0.00 77 1029.7
20240620021903 78 114 12.0 13.0 0.00 0.00 0.00 78 1029.7
20240620021402 78 95 11.0 13.0 0.00 0.00 0.00 76 1029.4
20240620020900 78 97 10.0 14.0 0.00 0.00 0.00 76 1029.4
20240620020358 78 111 13.0 13.0 0.00 0.00 0.00 78 1029.4
20240620015855 78 104 11.0 14.0 0.00 0.00 0.00 77 1029.0
20240620015353 78 105 11.0 14.0 0.00 0.00 0.00 77 1029.4
20240620014852 78 115 12.0 14.0 0.00 0.00 0.00 77 1029.4
20240620014350 79 111 12.0 14.0 0.00 0.00 0.00 77 1029.0
20240620013848 78 107 11.0 14.0 0.00 0.00 0.00 76 1029.4
20240620013347 78 98 13.0 13.0 0.00 0.00 0.00 77 1029.4
20240620012845 78 112 13.0 15.0 0.00 0.00 0.00 77 1029.0
20240620012344 78 109 11.0 14.0 0.00 0.00 0.00 77 1029.4
20240620011843 78 104 11.0 12.0 0.00 0.00 0.00 78 1029.0
20240620011339 78 110 9.0 14.0 0.00 0.00 0.00 77 1029.0
20240620010718 79 107 11.0 14.0 0.00 0.00 0.00 79 1029.0
20240620010216 79 116 11.0 13.0 0.00 0.00 0.00 78 1029.0
20240620005716 78 119 12.0 14.0 0.00 0.00 0.00 79 1029.0
20240620005215 79 113 9.0 13.0 0.00 0.00 0.00 78 1029.0
20240620004714 78 108 11.0 14.0 0.00 0.00 0.00 76 1029.0
20240620004212 78 111 11.0 13.0 0.00 0.00 0.00 78 1029.0
20240620003710 78 103 10.0 13.0 0.00 0.00 0.00 77 1028.7
20240620003208 78 98 10.0 14.0 0.00 0.00 0.00 78 1028.4
20240620002707 79 101 10.0 14.0 0.00 0.00 0.00 79 1028.7
20240620002206 79 110 11.0 15.0 0.00 0.00 0.00 79 1028.7
20240620001704 78 114 10.0 15.0 0.00 0.00 0.00 78 1028.7
20240620001203 78 116 12.0 14.0 0.00 0.00 0.00 78 1029.0
20240620000702 79 102 12.0 13.0 0.00 0.00 0.00 78 1028.7
20240620000159 79 97 11.0 13.0 0.00 0.00 0.00 78 1028.7
20240619235658 80 106 10.0 13.0 0.00 0.00 0.00 79 1029.0
20240619235154 78 106 10.0 13.0 0.00 0.00 0.00 77 1029.0
20240619234651 79 117 11.0 13.0 0.00 0.00 0.00 78 1029.0
20240619234150 79 118 13.0 15.0 0.00 0.00 0.00 78 1028.7
20240619233650 79 114 12.0 13.0 0.00 0.00 0.00 79 1028.7
20240619233149 79 109 12.0 13.0 0.00 0.00 0.00 78 1029.0
20240619232647 79 112 14.0 15.0 0.00 0.00 0.00 77 1029.0
20240619232145 80 118 12.0 12.0 0.00 0.00 0.00 78 1028.7
20240619231643 80 105 11.0 12.0 0.00 0.00 0.00 78 1029.0
20240619231142 79 109 11.0 15.0 0.00 0.00 0.00 78 1028.7
20240619230641 79 107 10.0 12.0 0.00 0.00 0.00 78 1029.0
20240619230140 79 111 10.0 13.0 0.00 0.00 0.00 77 1029.0
20240619225638 79 115 12.0 16.0 0.00 0.00 0.00 78 1028.7
20240619225136 79 119 14.0 18.0 0.00 0.00 0.00 79 1028.7
20240619224634 79 113 12.0 14.0 0.00 0.00 0.00 78 1028.7
20240619224133 79 113 10.0 12.0 0.00 0.00 0.00 77 1028.7
20240619223632 79 113 11.0 13.0 0.00 0.00 0.00 77 1028.7
20240619223130 80 83 10.0 12.0 0.00 0.00 0.00 76 1028.7
20240619222629 80 92 11.0 12.0 0.00 0.00 0.00 77 1028.7
20240619222128 79 92 9.0 12.0 0.00 0.00 0.00 77 1028.7
20240619221627 80 96 9.0 11.0 0.00 0.00 0.00 79 1028.7
20240619221126 79 106 11.0 12.0 0.00 0.00 0.00 77 1028.7
20240619220625 79 101 9.0 12.0 0.00 0.00 0.00 77 1029.0
20240619220123 79 105 10.0 10.0 0.00 0.00 0.00 77 1028.7
20240619215623 79 105 9.0 12.0 0.00 0.00 0.00 77 1028.7
20240619215119 80 80 10.0 11.0 0.00 0.00 0.00 78 1028.7
20240619214616 80 105 11.0 15.0 0.00 0.00 0.00 78 1028.7
20240619214115 79 79 9.0 14.0 0.00 0.00 0.00 77 1028.7
20240619213611 79 89 11.0 13.0 0.00 0.00 0.00 78 1028.7
20240619213109 79 81 11.0 14.0 0.00 0.00 0.00 79 1028.7
20240619212609 80 67 9.0 13.0 0.00 0.00 0.00 77 1029.0
20240619212108 79 69 10.0 14.0 0.00 0.00 0.00 77 1029.0
20240619211606 80 61 11.0 13.0 0.00 0.00 0.00 77 1028.7
20240619211105 79 67 12.0 14.0 0.00 0.00 0.00 77 1029.0
20240619210605 80 58 12.0 13.0 0.00 0.00 0.00 78 1029.0
20240619210104 79 54 10.0 14.0 0.00 0.00 0.00 76 1029.0
20240619205602 80 60 12.0 15.0 0.00 0.00 0.00 76 1029.0
20240619205100 80 59 10.0 16.0 0.00 0.00 0.00 76 1029.0
20240619204600 80 78 13.0 13.0 0.00 0.00 0.00 76 1029.0
20240619204059 80 76 12.0 12.0 0.00 0.00 0.00 77 1029.0
20240619203557 80 55 12.0 14.0 0.00 0.00 0.00 75 1029.0
20240619203057 79 70 14.0 16.0 0.00 0.00 0.00 74 1029.4
20240619202555 80 72 13.0 14.0 0.00 0.00 0.00 74 1029.4
20240619202054 80 77 12.0 13.0 0.00 0.00 0.00 73 1029.4
20240619201551 80 80 12.0 13.0 0.00 0.00 0.00 74 1029.4
20240619201049 80 68 11.0 14.0 0.00 0.00 0.00 73 1029.4
20240619200548 80 68 11.0 15.0 0.00 0.00 0.00 73 1029.4
20240619200047 80 82 10.0 13.0 0.00 0.00 0.00 74 1029.4
20240619195545 80 66 11.0 12.0 0.00 0.00 0.00 75 1029.7
20240619195045 80 89 11.0 14.0 0.00 0.00 0.00 73 1029.4
20240619194545 80 82 12.0 13.0 0.00 0.00 0.00 74 1029.7
20240619194042 80 84 11.0 13.0 0.00 0.00 0.00 72 1029.4
20240619193540 80 80 9.0 11.0 0.00 0.00 0.00 75 1029.7
20240619193038 80 72 11.0 13.0 0.00 0.00 0.00 74 1029.7
20240619192537 80 83 10.0 13.0 0.00 0.00 0.00 73 1029.4
20240619192035 80 73 12.0 14.0 0.00 0.00 0.00 72 1029.7
20240619191533 80 74 11.0 13.0 0.00 0.00 0.00 73 1029.7
20240619191031 80 83 10.0 14.0 0.00 0.00 0.00 72 1029.4
20240619190528 79 74 13.0 14.0 0.00 0.00 0.00 75 1029.4
20240619190027 79 71 11.0 15.0 0.00 0.00 0.00 73 1029.7
20240619185525 79 79 10.0 14.0 0.00 0.00 0.00 74 1029.4
20240619185024 80 72 12.0 13.0 0.00 0.00 0.00 74 1029.4
20240619184521 79 76 9.0 13.0 0.00 0.00 0.00 73 1029.4
20240619184021 80 71 10.0 13.0 0.00 0.00 0.00 74 1029.4
20240619183520 80 74 13.0 14.0 0.00 0.00 0.00 72 1029.4
20240619183016 80 68 13.0 14.0 0.00 0.00 0.00 74 1029.7
20240619182515 80 69 13.0 14.0 0.00 0.00 0.00 74 1029.7
20240619182014 80 70 12.0 14.0 0.00 0.00 0.00 73 1029.7
20240619181511 79 75 11.0 13.0 0.00 0.00 0.00 72 1029.7
20240619181008 80 75 10.0 13.0 0.00 0.00 0.00 74 1029.4
20240619180503 80 65 11.0 13.0 0.00 0.00 0.00 75 1029.7
20240619175953 79 81 9.0 12.0 0.00 0.00 0.00 74 1030.1
20240619175451 79 86 8.0 13.0 0.00 0.00 0.00 73 1029.7
20240619174951 80 86 8.0 9.0 0.00 0.00 0.00 75 1029.7
20240619174451 80 74 10.0 11.0 0.00 0.00 0.00 74 1029.7
20240619173949 79 79 9.0 12.0 0.00 0.00 0.00 73 1029.7
20240619173447 79 78 9.0 11.0 0.00 0.00 0.00 74 1030.1
20240619172945 80 81 9.0 11.0 0.00 0.00 0.00 71 1030.1
20240619172442 79 92 9.0 11.0 0.00 0.00 0.00 72 1029.7
20240619171940 80 101 11.0 12.0 0.00 0.00 0.00 73 1030.1
20240619171438 79 104 9.0 12.0 0.00 0.00 0.00 73 1029.7
20240619170937 79 80 10.0 12.0 0.00 0.00 0.00 73 1030.1
20240619170435 79 74 9.0 13.0 0.00 0.00 0.00 75 1030.1
20240619165933 79 81 10.0 12.0 0.00 0.00 0.00 73 1030.1
20240619165429 79 75 11.0 12.0 0.00 0.00 0.00 74 1029.7
20240619164928 79 85 11.0 12.0 0.00 0.00 0.00 75 1030.1
20240619164425 78 93 11.0 13.0 0.00 0.00 0.00 75 1030.1
20240619163923 79 83 11.0 13.0 0.00 0.00 0.00 75 1030.1
20240619163422 79 69 12.0 15.0 0.00 0.00 0.00 73 1029.7
20240619162919 79 77 11.0 14.0 0.00 0.00 0.00 71 1030.1
20240619162414 79 74 13.0 14.0 0.00 0.00 0.00 76 1030.1
20240619161905 79 86 12.0 14.0 0.00 0.00 0.00 73 1030.1
20240619161403 79 72 12.0 15.0 0.00 0.00 0.00 72 1030.1
20240619160902 79 93 10.0 12.0 0.00 0.00 0.00 76 1029.7
20240619160400 79 94 12.0 15.0 0.00 0.00 0.00 77 1030.1
20240619155859 79 85 11.0 12.0 0.00 0.00 0.00 78 1029.7
20240619155357 79 81 11.0 13.0 0.00 0.00 0.00 77 1029.7
20240619154857 79 70 13.0 14.0 0.00 0.00 0.00 75 1029.7
20240619154355 79 78 11.0 14.0 0.00 0.00 0.00 74 1029.7
20240619153854 79 78 12.0 13.0 0.00 0.00 0.00 74 1029.7
20240619153350 79 83 10.0 13.0 0.00 0.00 0.00 74 1029.7
20240619152850 79 85 11.0 13.0 0.00 0.00 0.00 75 1029.4
20240619152348 79 82 11.0 12.0 0.00 0.00 0.00 73 1029.7
20240619151847 79 84 10.0 12.0 0.00 0.00 0.00 75 1029.4
20240619151346 79 73 13.0 13.0 0.00 0.00 0.00 77 1029.7
20240619150845 79 72 13.0 16.0 0.00 0.00 0.00 75 1029.4
20240619150345 79 78 11.0 15.0 0.00 0.00 0.00 77 1029.7
20240619145844 79 74 12.0 14.0 0.00 0.00 0.00 76 1029.7
20240619145342 79 77 14.0 15.0 0.00 0.00 0.00 73 1029.7
20240619144840 79 80 13.0 15.0 0.00 0.00 0.00 74 1029.7
20240619144339 79 67 12.0 14.0 0.00 0.00 0.00 73 1029.4
20240619143837 79 67 14.0 15.0 0.00 0.00 0.00 73 1029.4
20240619143334 79 68 13.0 14.0 0.00 0.00 0.00 73 1029.4
20240619142834 79 88 11.0 14.0 0.00 0.00 0.00 73 1029.4
20240619142332 79 72 13.0 15.0 0.00 0.00 0.00 72 1029.4
20240619141830 79 76 12.0 14.0 0.00 0.00 0.00 72 1029.7
20240619141330 79 84 10.0 14.0 0.00 0.00 0.00 70 1029.7
20240619140828 79 71 11.0 13.0 0.00 0.00 0.00 73 1029.7
20240619140327 79 74 9.0 13.0 0.00 0.00 0.00 72 1029.7
20240619135826 79 71 10.0 13.0 0.00 0.00 0.00 73 1029.4
20240619135324 79 75 9.0 12.0 0.00 0.00 0.00 75 1029.4
20240619134823 79 74 11.0 13.0 0.00 0.00 0.00 75 1029.4
20240619134321 79 88 9.0 12.0 0.00 0.00 0.00 73 1029.7
20240619133821 78 78 11.0 13.0 0.00 0.00 0.00 75 1029.4
20240619133320 79 71 10.0 10.0 0.00 0.00 0.00 78 1029.4
20240619132819 78 96 8.0 12.0 0.00 0.00 0.00 75 1029.7
20240619132317 78 86 10.0 11.0 0.00 0.00 0.00 75 1029.7
20240619131816 79 91 9.0 11.0 0.00 0.00 0.00 75 1029.4
20240619131315 78 74 9.0 11.0 0.00 0.00 0.00 75 1029.4
20240619130813 79 74 8.0 11.0 0.00 0.00 0.00 76 1029.4
20240619130310 78 92 7.0 9.0 0.00 0.00 0.00 76 1029.4
20240619125809 78 95 8.0 9.0 0.00 0.00 0.00 75 1029.4
20240619125307 78 88 9.0 10.0 0.00 0.00 0.00 73 1029.0
20240619124804 78 81 10.0 11.0 0.00 0.00 0.00 74 1029.4
20240619124303 78 89 9.0 11.0 0.00 0.00 0.00 73 1029.4
20240619123801 78 94 10.0 10.0 0.00 0.00 0.00 74 1029.7
20240619123300 78 92 10.0 12.0 0.00 0.00 0.00 72 1029.4
20240619122759 78 95 10.0 12.0 0.00 0.00 0.00 74 1029.4
20240619122257 78 84 10.0 12.0 0.00 0.00 0.00 73 1029.0
20240619121755 78 93 11.0 12.0 0.00 0.00 0.00 75 1029.4
20240619121254 78 85 10.0 12.0 0.00 0.00 0.00 77 1029.0
20240619120752 78 87 9.0 11.0 0.00 0.00 0.00 74 1029.0
20240619120253 78 86 11.0 13.0 0.00 0.00 0.00 73 1029.0
20240619115752 79 80 8.0 10.0 0.00 0.00 0.00 75 1029.0
20240619115250 78 92 8.0 11.0 0.00 0.00 0.00 73 1029.0
20240619114748 78 93 9.0 10.0 0.00 0.00 0.00 75 1029.0
20240619114247 78 89 8.0 11.0 0.00 0.00 0.00 75 1029.0
20240619113744 78 78 12.0 13.0 0.00 0.00 0.00 74 1029.0
20240619113242 78 82 11.0 12.0 0.00 0.00 0.00 74 1029.0
20240619112741 78 85 10.0 12.0 0.00 0.00 0.00 73 1028.7
20240619112240 78 75 12.0 12.0 0.00 0.00 0.00 75 1028.7
20240619111738 78 80 10.0 12.0 0.00 0.00 0.00 73 1028.7
20240619111237 78 89 11.0 12.0 0.00 0.00 0.00 74 1028.7
20240619110736 78 88 10.0 12.0 0.00 0.00 0.00 74 1028.4
20240619110234 78 89 10.0 11.0 0.00 0.00 0.00 73 1028.4
20240619105733 78 96 11.0 12.0 0.00 0.00 0.00 75 1028.4
20240619105232 78 81 9.0 11.0 0.00 0.00 0.00 75 1028.4
20240619104730 78 86 9.0 11.0 0.00 0.00 0.00 75 1028.0
20240619104230 78 84 9.0 11.0 0.00 0.00 0.00 77 1028.4
20240619103729 78 91 10.0 12.0 0.00 0.00 0.00 75 1028.0
20240619103227 78 82 9.0 12.0 0.00 0.00 0.00 77 1028.0
20240619102725 78 91 9.0 11.0 0.00 0.00 0.00 77 1028.0
20240619102224 78 98 11.0 11.0 0.00 0.00 0.00 78 1028.0
20240619101722 77 93 9.0 12.0 0.00 0.00 0.00 78 1027.7
20240619101218 78 99 11.0 12.0 0.00 0.00 0.00 79 1027.7
20240619100717 77 100 10.0 11.0 0.00 0.00 0.00 80 1028.0
20240619100216 78 89 9.0 10.0 0.00 0.00 0.00 81 1028.0
20240619095716 78 98 10.0 10.0 0.00 0.00 0.00 81 1027.7
20240619095216 77 96 8.0 10.0 0.00 0.00 0.00 81 1027.7
20240619094715 77 98 9.0 10.0 0.00 0.00 0.00 82 1027.7
20240619094214 78 108 8.0 9.0 0.00 0.00 0.00 81 1027.7
20240619093712 77 110 7.0 10.0 0.00 0.00 0.00 81 1027.7
20240619093211 78 100 8.0 9.0 0.00 0.00 0.00 81 1027.7
20240619092710 77 101 8.0 9.0 0.00 0.00 0.00 81 1027.7
20240619092208 77 105 8.0 10.0 0.00 0.00 0.00 81 1027.7
20240619091705 78 109 9.0 10.0 0.00 0.00 0.00 81 1027.4
20240619091205 77 110 9.0 10.0 0.00 0.00 0.00 80 1027.7
20240619090703 77 103 7.0 9.0 0.00 0.00 0.00 80 1027.7
20240619090202 78 116 9.0 10.0 0.00 0.00 0.00 80 1027.7
20240619085658 77 121 9.0 10.0 0.00 0.00 0.00 78 1027.4
20240619085158 77 115 9.0 13.0 0.00 0.00 0.00 77 1027.4
20240619084658 77 108 8.0 10.0 0.00 0.00 0.00 78 1027.4
20240619084156 77 111 9.0 12.0 0.00 0.00 0.00 79 1027.4
20240619083655 77 112 10.0 10.0 0.00 0.00 0.00 78 1027.4
20240619083154 77 127 11.0 11.0 0.00 0.00 0.00 77 1027.4
20240619082653 77 118 6.0 7.0 0.00 0.00 0.00 78 1027.4
20240619082151 77 114 7.0 8.0 0.00 0.00 0.00 76 1027.4
20240619081650 77 129 8.0 9.0 0.00 0.00 0.00 75 1027.4
20240619081149 77 126 9.0 10.0 0.00 0.00 0.00 75 1027.4
20240619080649 77 125 8.0 10.0 0.00 0.00 0.00 77 1027.0
20240619080147 77 126 9.0 10.0 0.00 0.00 0.00 76 1027.0
20240619075645 77 120 10.0 12.0 0.00 0.00 0.00 75 1027.0
20240619075145 77 124 9.0 11.0 0.00 0.00 0.00 77 1027.0
20240619074644 77 130 8.0 11.0 0.00 0.00 0.00 75 1026.7
20240619074141 77 119 9.0 11.0 0.00 0.00 0.00 74 1026.7
20240619073640 78 124 9.0 10.0 0.00 0.00 0.00 76 1026.7
20240619073138 77 125 9.0 12.0 0.00 0.00 0.00 74 1026.7
20240619072635 78 124 7.0 12.0 0.00 0.00 0.00 76 1026.7
20240619072135 78 120 9.0 11.0 0.00 0.00 0.00 73 1026.7
20240619071635 77 114 10.0 11.0 0.00 0.00 0.00 73 1026.7
20240619071134 78 110 8.0 11.0 0.00 0.00 0.00 73 1027.0
20240619070633 77 114 8.0 10.0 0.00 0.00 0.00 73 1026.7
20240619070132 78 124 9.0 11.0 0.00 0.00 0.00 74 1027.0
20240619065629 77 126 10.0 12.0 0.00 0.00 0.00 74 1026.7
20240619065128 77 121 10.0 12.0 0.00 0.00 0.00 75 1027.0
20240619064628 78 116 9.0 13.0 0.00 0.00 0.00 75 1027.0
20240619064127 78 130 11.0 11.0 0.00 0.00 0.00 74 1026.7
20240619063625 77 131 10.0 13.0 0.00 0.00 0.00 74 1027.0
20240619063123 78 129 9.0 11.0 0.00 0.00 0.00 75 1027.0
20240619062622 77 128 10.0 11.0 0.00 0.00 0.00 75 1027.0
20240619062121 78 128 13.0 13.0 0.00 0.00 0.00 76 1027.0
20240619061620 78 121 12.0 12.0 0.00 0.00 0.00 77 1027.4
20240619061118 78 117 9.0 11.0 0.00 0.00 0.00 77 1027.0
20240619060618 77 117 9.0 13.0 0.00 0.00 0.00 75 1027.0
20240619060117 77 127 10.0 12.0 0.00 0.00 0.00 76 1027.0
20240619055616 77 126 11.0 13.0 0.00 0.00 0.00 77 1027.4
20240619055115 78 120 9.0 12.0 0.00 0.00 0.00 80 1027.4
20240619054614 78 130 12.0 14.0 0.00 0.00 0.00 79 1027.4
20240619054115 77 121 12.0 14.0 0.00 0.00 0.00 78 1027.4
20240619053613 78 127 13.0 14.0 0.00 0.00 0.00 78 1027.0
20240619053111 78 116 12.0 14.0 0.00 0.00 0.00 78 1027.4
20240619052610 78 127 10.0 14.0 0.00 0.00 0.00 78 1027.4
20240619052106 78 124 11.0 15.0 0.00 0.00 0.00 78 1027.4
20240619051604 78 114 10.0 15.0 0.00 0.00 0.00 77 1027.4
20240619051103 78 114 10.0 15.0 0.00 0.00 0.00 78 1027.0
20240619050601 78 120 10.0 15.0 0.00 0.00 0.00 78 1027.4
20240619050059 78 122 12.0 13.0 0.00 0.00 0.00 78 1027.4
20240619045557 78 126 12.0 13.0 0.00 0.00 0.00 77 1027.4
20240619045057 78 121 12.0 14.0 0.00 0.00 0.00 77 1027.4
20240619044554 78 116 13.0 14.0 0.00 0.00 0.00 79 1027.4
20240619044053 78 122 9.0 10.0 0.00 0.00 0.00 81 1027.4
20240619043553 77 135 6.0 9.0 0.00 0.00 0.00 82 1027.4
20240619043051 77 140 10.0 12.0 0.00 0.00 0.00 82 1027.4
20240619042550 77 139 10.0 13.0 0.00 0.00 0.00 83 1027.4
20240619042048 77 129 13.0 14.0 0.00 0.00 0.00 84 1027.7
20240619041547 77 74 11.0 13.0 0.00 0.00 0.00 84 1027.4
20240619041044 77 52 9.0 11.0 0.00 0.00 0.00 82 1027.7
20240619040542 77 66 13.0 16.0 0.00 0.00 0.00 80 1028.0
20240619040040 78 85 13.0 14.0 0.00 0.00 0.00 77 1027.7
20240619035539 78 75 13.0 14.0 0.00 0.00 0.00 76 1028.0
20240619035037 78 73 10.0 12.0 0.00 0.00 0.00 76 1027.7
20240619034536 79 71 9.0 10.0 0.00 0.00 0.00 75 1027.7
20240619034035 78 75 9.0 10.0 0.00 0.00 0.00 75 1027.7
20240619033535 78 82 11.0 11.0 0.00 0.00 0.00 76 1027.7
20240619033033 78 78 9.0 10.0 0.00 0.00 0.00 75 1027.4
20240619032530 78 80 7.0 9.0 0.00 0.00 0.00 77 1027.7
20240619032029 78 89 7.0 8.0 0.00 0.00 0.00 76 1027.4
20240619031529 78 76 8.0 10.0 0.00 0.00 0.00 74 1027.7
20240619031027 78 81 8.0 10.0 0.00 0.00 0.00 75 1027.7
20240619030527 78 71 9.0 10.0 0.00 0.00 0.00 75 1027.7
20240619030025 78 88 8.0 9.0 0.00 0.00 0.00 74 1027.7